Find Starlink 3252

NORAD ID: 49733 Int'l Des: 2021-115 Owner: SPXS Country: US Constellation: starlink operational
LEOCIRCULAR

現在のビュー

3D地球を読み込み中...

About Starlink 3252

Starlink 3252 (NORAD 49733) is a starlink constellation satellite (v1.5) launched Dec 2, 2021 by SPXS of US. It operates in LEO, CIRCULAR orbit with a mass of 290.00 kg.

次回通過

Passes for default location (London). Set your location on the main map for personalized predictions.

高度履歴

Loading altitude history...

軌道要素

1 49733U 21115K 26263.96695095 .00000097 00000-0 14888-4 0 9993
2 49733 53.1608 349.6630 0001197 69.7418 290.3712 15.31702370265045
Epoch: Sep 20, 2026 • Age: 12 hours

現在のステータス

高度 489.8 km
遠地点 / 近地点 N/A
速度 7.62 km/s
衛星直下点 -52.63°S, 74.62°E
打ち上げ日 Dec 2, 2021
運用期間 4.7 years
タイプ internet

技術仕様

分類 Payload
質量 290.00 kg
乾燥質量 270.00 kg
長さ 0.20 m
スパン 9.00 m
形状 ? Box + pan
製造者 SPXS
バスタイプ Starlink
フェーズステータス In Orbit
所有者/国 SPXS/US

Most Searched